Temp
65 64 63 62 62 63 62 61 61 61 61 60 60 60 59 57 56 56 57 59 61 62 63 63 63 62 56 49 49 62 68 68 62 60 55 52 48 47 42 43 45 41 44 47 49 48 48
64 64 63 62 63 63 61 61 61 60 60 59 60 60 59 59 57 56 57 59 59 59 61 63 62 61 51 42 59 61 61 60 60 57 54 53 50 50 46 45 45 47 46 46 48 48 48
64 63 63 62 62 62 61 61 60 60 60 60 59 59 58 59 58 57 59 59 59 62 63 63 62 57 49 46 58 60 61 58 59 57 52 55 57 51 50 44 48 47 41 45 47 48 47
64 63 63 62 62 61 61 61 60 59 59 59 60 59 59 59 59 58 59 57 56 59 62 62 61 53 44 58 57 59 60 58 59 59 59 58 57 52 48 49 46 42 42 35 47 48 49
63 63 62 62 61 61 61 61 60 60 60 59 59 59 59 59 59 59 59 57 58 61 62 61 52 47 44 62 55 58 59 55 55 58 59 59 55 48 48 41 37 41 32 35 40 48 47
63 62 62 61 61 61 61 61 60 60 59 59 59 58 59 59 59 60 60 60 61 58 57 57 55 45 50 48 54 56 57 57 53 52 52 50 47 43 42 39 29 32 33 36 37 43 45
63 62 62 61 61 61 60 60 60 60 59 58 58 58 58 58 58 58 53 49 45 44 46 42 43 45 49 53 56 54 56 54 52 48 40 44 38 34 37 40 41 37 36 34 37 44 41
62 61 61 60 60 60 60 60 60 59 59 58 58 58 58 58 58 57 49 42 44 45 40 47 48 49 51 52 47 51 56 46 45 38 42 39 34 41 43 43 41 39 35 34 39 44 42
62 61 61 60 60 60 60 60 60 59 59 58 58 58 57 58 57 49 46 45 49 47 40 45 49 48 48 51 45 47 52 47 41 37 38 34 38 44 43 40 37 36 33 33 34 39 41
62 61 60 60 59 59 59 59 59 59 58 58 58 58 57 57 50 45 44 48 49 47 29 37 43 48 50 49 43 53 53 47 42 37 38 36 42 41 39 37 40 31 39 38 36 34 29
61 60 60 59 59 58 58 59 59 58 58 58 57 57 57 53 43 42 45 48 48 46 17 40 43 54 50 45 45 47 53 47 38 38 38 35 37 36 36 38 40 35 39 36 36 33 32
61 61 59 59 58 58 58 58 58 58 58 57 57 56 56 48 45 46 47 47 45 26 16 34 42 41 41 44 44 47 46 48 45 38 37 36 42 40 39 42 42 43 37 35 33 34 26
60 60 59 59 58 58 58 58 58 58 57 57 57 56 51 49 44 48 47 42 26 19 35 33 35 40 38 38 40 40 38 34 31 25 25 33 36 40 42 38 41 39 32 23 21 22 24
60 59 59 59 58 58 58 58 58 58 57 56 56 54 51 51 46 46 43 34 21 31 31 39 38 38 34 38 37 36 35 30 35 32 25 23 23 36 42 37 34 35 34 22 18 20 24
60 59 58 58 58 58 57 57 57 57 57 56 54 44 45 47 47 45 38 28 28 32 36 35 37 32 33 36 36 33 30 29 32 33 27 24 27 38 39 39 38 33 30 36 24 22 24
59 59 59 58 58 57 57 57 57 57 56 55 42 41 43 47 45 41 33 32 32 38 39 38 31 32 28 31 31 30 28 32 33 35 34 31 22 35 38 40 39 36 37 26 26 16 19
59 59 59 58 57 56 56 56 57 57 56 54 40 40 46 45 44 38 26 29 35 41 40 36 31 31 29 28 29 26 28 33 34 34 34 32 29 30 35 32 30 32 29 30 30 29 19
59 59 59 58 57 56 56 56 56 57 55 47 39 36 45 44 35 30 27 34 42 38 39 38 37 33 29 30 28 27 27 31 36 35 30 32 28 21 29 34 36 34 30 28 23 22 23
59 59 58 58 56 56 56 56 56 56 54 40 36 36 44 43 27 25 33 37 38 37 36 36 35 36 34 30 27 29 30 38 37 35 31 33 22 14 24 30 32 30 32 31 24 22 25
59 59 58 57 57 56 55 55 55 55 54 41 37 34 37 35 32 32 31 32 34 39 37 38 36 35 32 30 31 29 29 36 36 35 42 37 22 20 18 23 28 25 31 31 26 16 19
59 58 58 58 57 56 56 55 55 55 54 42 33 33 33 28 31 32 32 33 33 33 36 36 33 33 30 27 27 27 29 31 34 37 32 31 18 23 26 28 29 28 29 31 19 26 21
58 58 58 58 57 57 56 55 54 54 53 38 35 34 31 31 32 30 34 33 34 33 33 33 33 32 30 28 29 27 28 27 27 30 28 29 19 16 15 29 28 27 30 30 31 31 29
58 58 58 58 57 57 56 54 54 54 49 37 34 35 36 33 30 30 33 34 35 35 36 35 34 31 31 34 34 32 32 31 28 26 27 25 18 15 17 25 20 18 28 31 33 33 33
58 57 58 58 57 57 56 55 54 54 48 39 37 36 34 33 31 33 35 36 36 34 34 34 34 31 34 34 33 32 29 30 28 27 30 25 19 21 17 17 18 31 35 35 34 34 34
58 57 57 57 57 57 56 55 54 54 51 40 38 38 34 31 32 34 34 33 33 32 33 34 35 35 34 32 30 28 23 27 28 28 26 26 24 18 17 14 26 29 32 32 31 33 35
57 57 57 57 56 56 55 55 55 54 52 42 39 39 36 33 33 36 33 33 32 28 30 33 34 35 33 32 31 23 22 22 24 23 26 29 26 20 17 18 22 32 34 37 36 29 37
57 57 57 57 56 56 55 55 55 54 53 43 39 41 37 32 34 36 34 33 34 30 30 29 30 31 32 29 25 22 26 26 21 22 23 17 17 19 17 17 26 33 36 38 26 34 38
56 56 56 56 56 56 55 54 54 54 54 46 40 41 40 33 34 37 40 34 32 32 32 31 32 30 28 26 24 21 23 26 23 25 25 27 20 19 19 17 23 35 34 34 40 36 39
56 56 56 56 55 55 55 55 54 54 53 49 41 44 42 37 37 40 40 41 42 40 35 29 32 29 32 28 22 21 24 17 23 24 24 24 31 29 30 33 39 37 41 40 39 40 38
MSLP
1021.10 1020.58 1020.06 1019.75 1019.11 1018.67 1018.32 1017.87 1017.19 1016.55 1015.91 1015.25 1014.79 1014.41 1014.33 1014.55 1014.61 1014.41 1014.61 1014.38 1014.05 1013.75 1013.89 1014.42 1015.01 1015.35 1015.57 1016.08 1016.49 1015.83 1015.60 1015.59 1016.11 1016.61 1017.24 1017.91 1018.28 1018.14 1018.39 1018.79 1019.02 1019.08 1018.69 1018.19 1017.52 1017.27 1017.25
1021.40 1020.86 1020.30 1019.89 1019.34 1018.66 1018.42 1017.71 1017.24 1016.54 1015.81 1015.23 1014.45 1014.24 1014.19 1014.16 1014.50 1014.58 1014.67 1014.48 1014.14 1014.23 1014.20 1014.71 1015.16 1015.48 1015.84 1016.39 1016.37 1016.06 1016.03 1016.31 1016.50 1016.94 1017.60 1018.00 1018.02 1017.96 1018.36 1018.61 1018.66 1018.45 1018.13 1017.45 1016.88 1016.44 1016.45
1021.56 1021.11 1020.56 1020.02 1019.52 1018.85 1018.33 1017.68 1017.12 1016.54 1015.57 1014.92 1014.42 1014.14 1014.40 1014.50 1014.71 1014.88 1014.77 1014.67 1014.31 1014.21 1014.67 1015.10 1015.46 1015.62 1016.07 1016.79 1016.54 1016.32 1016.21 1016.68 1016.87 1017.22 1017.67 1017.85 1017.90 1018.08 1018.13 1018.36 1018.40 1018.04 1017.66 1016.74 1016.16 1016.00 1015.53
1021.80 1021.39 1020.92 1020.42 1019.77 1019.12 1018.39 1017.67 1016.99 1016.63 1015.93 1015.54 1015.06 1014.81 1014.85 1014.93 1015.06 1015.09 1014.91 1014.94 1015.10 1015.02 1015.21 1015.39 1015.52 1016.13 1016.78 1016.45 1016.60 1016.43 1016.54 1017.01 1017.13 1017.29 1017.48 1017.64 1017.63 1017.96 1018.21 1018.38 1018.10 1017.77 1017.69 1017.21 1015.84 1015.45 1015.18
1022.11 1021.69 1021.27 1020.81 1020.10 1019.19 1018.65 1018.12 1017.50 1016.87 1016.52 1016.29 1016.01 1015.65 1015.55 1015.52 1015.55 1015.20 1015.25 1015.47 1015.57 1015.55 1015.64 1015.73 1016.20 1016.52 1016.84 1016.33 1016.68 1016.79 1016.87 1017.16 1017.27 1017.37 1017.34 1017.51 1017.66 1017.90 1018.13 1018.29 1018.24 1017.91 1017.83 1017.24 1016.21 1015.60 1015.43
1022.42 1022.05 1021.60 1021.17 1020.40 1019.77 1019.01 1018.43 1017.93 1017.64 1017.32 1016.87 1016.53 1016.39 1016.18 1016.04 1015.76 1015.54 1015.52 1015.66 1015.80 1015.86 1016.25 1016.38 1016.45 1017.00 1017.07 1017.25 1017.12 1017.03 1017.03 1017.14 1017.35 1017.50 1017.61 1017.73 1017.80 1017.99 1018.21 1018.30 1018.47 1018.17 1018.03 1017.41 1016.77 1015.88 1015.57
1022.70 1022.32 1021.90 1021.53 1020.92 1020.17 1019.76 1018.94 1018.40 1018.07 1018.06 1017.76 1017.46 1016.98 1016.80 1016.31 1016.26 1016.31 1016.46 1016.53 1017.05 1017.16 1017.37 1017.87 1018.15 1017.62 1017.65 1017.52 1017.25 1017.20 1017.13 1017.24 1017.48 1017.77 1017.99 1018.04 1018.33 1018.31 1018.17 1018.16 1018.12 1018.22 1017.92 1017.59 1017.10 1016.13 1015.98
1023.00 1022.79 1022.10 1021.82 1021.41 1020.80 1020.12 1019.49 1018.86 1018.52 1018.19 1018.51 1018.13 1017.66 1017.38 1017.27 1016.86 1016.67 1017.01 1017.93 1018.83 1018.94 1018.77 1018.32 1018.01 1017.84 1017.69 1017.61 1017.54 1017.34 1017.13 1017.54 1017.79 1018.08 1018.25 1018.55 1018.15 1017.64 1017.67 1017.66 1017.64 1017.71 1017.74 1017.33 1016.75 1016.21 1016.04
1023.13 1023.12 1022.60 1022.20 1021.78 1021.36 1020.54 1020.06 1019.24 1019.11 1018.76 1018.66 1018.77 1018.51 1017.96 1017.64 1017.49 1017.66 1018.48 1019.31 1019.10 1018.78 1018.64 1018.65 1018.27 1018.06 1017.95 1017.82 1017.76 1017.46 1017.43 1017.62 1017.94 1018.32 1018.51 1018.62 1017.76 1017.42 1017.34 1017.37 1017.58 1017.61 1017.64 1017.43 1017.31 1016.48 1015.77
1023.36 1023.28 1023.04 1022.61 1022.06 1021.64 1021.17 1020.45 1019.89 1019.59 1019.31 1018.95 1018.96 1018.83 1018.64 1018.00 1018.22 1018.96 1019.26 1019.40 1019.01 1018.84 1019.17 1019.80 1018.69 1018.16 1018.02 1017.82 1017.83 1017.46 1017.32 1017.76 1018.05 1018.42 1018.45 1018.48 1017.85 1017.67 1017.41 1017.42 1017.61 1017.64 1017.40 1017.46 1017.39 1017.16 1016.51
1023.45 1023.36 1023.12 1022.90 1022.42 1021.86 1021.43 1021.01 1020.33 1019.95 1020.01 1019.58 1019.20 1018.87 1018.84 1019.45 1020.05 1020.37 1020.94 1019.77 1019.06 1018.88 1019.94 1020.44 1019.07 1018.05 1018.10 1018.34 1018.34 1017.83 1017.58 1017.77 1018.35 1018.71 1019.13 1018.77 1018.24 1017.95 1017.63 1017.31 1017.48 1017.85 1017.80 1017.75 1017.50 1017.44 1017.11
1023.56 1023.56 1023.29 1022.87 1022.62 1022.25 1021.77 1021.23 1021.03 1020.40 1019.96 1019.96 1019.41 1019.01 1018.64 1019.21 1019.82 1020.17 1019.69 1019.51 1019.66 1020.31 1022.16 1021.15 1020.00 1019.26 1018.97 1018.81 1018.67 1018.28 1018.26 1018.42 1018.76 1019.08 1019.30 1019.17 1018.44 1018.16 1017.75 1017.31 1017.32 1017.60 1017.81 1017.76 1017.92 1017.68 1017.39
1023.58 1023.57 1023.40 1023.04 1022.67 1022.35 1022.03 1021.70 1021.30 1020.83 1020.36 1019.66 1019.71 1019.54 1019.06 1019.53 1019.86 1019.49 1019.21 1019.67 1020.55 1022.15 1023.26 1022.28 1021.12 1020.33 1020.10 1019.86 1019.58 1019.55 1019.72 1020.06 1020.53 1020.47 1020.40 1019.80 1018.92 1018.24 1017.94 1017.80 1017.63 1017.77 1017.96 1018.39 1018.54 1018.14 1017.62
1023.60 1023.30 1023.23 1023.08 1022.84 1022.45 1022.22 1021.80 1021.58 1021.12 1020.69 1019.88 1019.44 1019.48 1019.99 1019.64 1019.61 1019.53 1019.58 1020.64 1022.16 1023.48 1022.88 1021.99 1021.21 1020.65 1020.60 1020.41 1020.53 1020.74 1020.98 1021.55 1021.57 1021.84 1021.95 1021.38 1019.75 1018.80 1018.31 1018.45 1018.42 1018.33 1018.39 1018.62 1018.77 1018.62 1018.21
1023.56 1023.25 1023.15 1022.99 1022.70 1022.48 1022.27 1021.94 1021.52 1020.91 1020.42 1019.79 1019.69 1020.09 1019.88 1019.49 1019.73 1019.76 1020.35 1021.80 1023.49 1023.22 1022.81 1022.30 1021.55 1021.39 1021.15 1020.92 1021.01 1021.42 1021.97 1022.42 1022.45 1022.53 1022.81 1022.06 1020.68 1019.16 1018.70 1018.52 1018.70 1018.59 1018.81 1019.03 1019.11 1019.42 1018.87
1023.69 1023.37 1022.91 1022.88 1022.73 1022.35 1022.07 1021.88 1021.66 1021.23 1020.38 1019.96 1020.47 1020.47 1020.22 1019.74 1019.87 1020.30 1020.99 1022.98 1023.42 1022.90 1022.61 1022.24 1021.96 1021.74 1021.87 1021.84 1021.90 1022.17 1022.52 1022.61 1022.68 1022.69 1022.78 1022.57 1021.77 1019.85 1019.16 1018.86 1018.95 1019.02 1019.49 1019.65 1019.64 1019.73 1019.29
1023.30 1023.37 1023.14 1022.73 1022.60 1022.32 1021.97 1021.55 1021.27 1020.97 1020.48 1019.99 1020.58 1020.91 1019.79 1019.79 1019.60 1020.62 1023.25 1023.73 1023.08 1022.37 1022.11 1021.96 1022.04 1022.21 1022.38 1022.56 1022.67 1022.80 1022.78 1022.59 1022.64 1022.59 1022.66 1022.86 1022.88 1020.88 1020.04 1019.92 1020.12 1019.88 1020.05 1020.33 1020.38 1020.25 1020.18
1022.87 1022.96 1022.96 1022.81 1022.67 1022.37 1021.90 1021.73 1021.26 1020.57 1020.18 1020.10 1021.10 1021.40 1020.04 1020.39 1021.21 1022.81 1023.83 1023.13 1022.22 1021.95 1021.63 1021.57 1021.62 1021.93 1022.18 1022.44 1022.79 1022.88 1023.03 1022.74 1022.51 1022.59 1022.90 1022.97 1023.13 1022.58 1021.47 1020.86 1020.54 1020.56 1020.82 1021.09 1021.31 1021.15 1020.90
1022.58 1022.43 1022.53 1022.56 1022.23 1022.25 1022.08 1021.67 1021.36 1020.99 1020.57 1021.17 1021.73 1021.57 1020.02 1019.52 1022.75 1024.09 1023.52 1022.85 1022.29 1021.91 1021.67 1021.49 1021.64 1021.92 1022.06 1022.37 1022.60 1022.57 1022.63 1022.29 1022.50 1022.77 1022.92 1023.08 1023.76 1023.48 1022.40 1022.13 1021.48 1021.15 1021.22 1021.39 1021.65 1021.75 1021.23
1022.36 1022.31 1022.26 1022.17 1022.06 1021.96 1021.99 1021.75 1021.47 1021.13 1020.75 1021.11 1022.36 1022.68 1021.92 1022.10 1023.56 1023.61 1023.71 1023.13 1022.65 1022.37 1022.58 1022.58 1022.75 1022.26 1022.21 1022.43 1022.59 1022.64 1022.49 1022.37 1022.54 1022.75 1023.13 1023.45 1024.27 1024.44 1023.99 1023.03 1022.49 1021.74 1021.38 1021.36 1021.58 1022.12 1021.31
1022.16 1021.90 1022.07 1022.10 1022.06 1021.91 1021.88 1021.77 1021.52 1021.21 1020.95 1021.32 1022.82 1023.84 1023.97 1023.71 1023.96 1023.39 1023.47 1023.49 1022.99 1022.18 1022.07 1022.06 1022.35 1022.44 1022.60 1022.44 1022.43 1022.56 1022.73 1022.68 1022.66 1023.05 1023.41 1023.96 1024.91 1024.66 1023.52 1022.90 1022.58 1022.01 1021.45 1021.18 1021.28 1020.85 1020.71
1021.65 1021.43 1021.57 1021.63 1021.71 1021.77 1021.76 1021.73 1021.62 1021.35 1021.09 1022.06 1023.24 1023.54 1024.23 1024.12 1023.90 1023.38 1023.14 1023.02 1022.61 1022.50 1022.52 1022.27 1022.48 1022.53 1022.79 1022.98 1022.97 1023.00 1023.15 1023.17 1023.21 1023.47 1023.88 1024.47 1025.07 1025.17 1024.12 1022.62 1022.27 1021.53 1020.50 1020.43 1020.39 1019.97 1019.56
1021.10 1020.93 1021.07 1021.18 1021.31 1021.37 1021.52 1021.69 1021.64 1021.50 1021.37 1022.36 1023.54 1023.68 1023.10 1023.97 1023.79 1023.53 1022.33 1022.01 1021.97 1022.29 1022.33 1022.33 1022.47 1022.67 1022.57 1022.43 1022.59 1022.93 1023.38 1023.63 1023.64 1023.95 1024.39 1024.92 1025.26 1025.70 1024.38 1023.00 1022.11 1021.08 1018.94 1018.71 1018.66 1018.57 1018.50
1020.49 1020.35 1020.45 1020.59 1020.64 1020.87 1021.19 1021.37 1021.45 1021.48 1021.59 1022.32 1022.85 1023.33 1023.64 1023.93 1024.10 1023.04 1022.17 1021.68 1021.77 1022.08 1022.29 1022.47 1022.64 1022.85 1022.38 1022.35 1022.72 1023.08 1023.41 1023.82 1024.23 1024.21 1024.53 1025.07 1025.66 1025.53 1024.69 1023.12 1021.39 1018.55 1017.85 1017.65 1017.74 1017.26 1017.18
1019.99 1019.75 1019.77 1020.03 1020.08 1020.11 1020.50 1020.87 1021.19 1021.37 1021.47 1022.03 1022.39 1022.73 1023.28 1023.32 1023.22 1022.94 1022.39 1022.38 1022.09 1022.12 1022.40 1022.41 1022.34 1022.52 1022.54 1022.71 1023.07 1023.03 1023.42 1023.78 1023.80 1024.20 1024.62 1025.07 1025.29 1025.46 1024.92 1023.31 1020.06 1018.07 1017.52 1017.35 1017.39 1016.43 1015.83
1019.33 1019.16 1019.07 1019.25 1019.55 1019.68 1019.81 1020.18 1020.37 1020.88 1021.25 1021.90 1022.13 1022.18 1022.45 1022.99 1022.11 1021.85 1022.49 1022.21 1022.56 1022.54 1022.62 1022.36 1022.37 1022.45 1022.76 1023.19 1023.51 1023.86 1023.92 1023.83 1023.83 1024.22 1024.57 1024.78 1025.02 1025.17 1024.74 1022.88 1019.63 1017.13 1016.55 1016.49 1016.68 1016.05 1015.18
1018.71 1018.44 1018.35 1018.47 1018.70 1018.98 1019.31 1019.47 1019.96 1020.18 1020.52 1021.22 1021.83 1021.87 1022.41 1022.63 1021.36 1021.39 1021.49 1021.64 1021.69 1022.20 1022.42 1022.47 1022.65 1022.93 1022.95 1023.48 1024.06 1024.26 1023.88 1023.40 1023.67 1023.66 1023.97 1024.47 1024.58 1024.32 1023.38 1021.67 1018.34 1016.00 1015.90 1016.22 1016.06 1015.22 1014.56
1017.88 1017.90 1017.77 1017.56 1017.81 1018.11 1018.47 1018.87 1019.07 1019.63 1020.07 1020.74 1021.22 1021.28 1021.64 1022.09 1021.08 1020.40 1020.52 1020.92 1021.08 1021.27 1021.69 1022.28 1022.87 1023.10 1023.66 1023.87 1024.08 1024.13 1024.06 1023.31 1023.08 1022.38 1022.13 1022.26 1022.54 1022.29 1021.57 1019.86 1016.94 1015.05 1015.79 1015.35 1013.37 1013.54 1013.83
1016.97 1016.93 1016.92 1017.01 1016.91 1017.13 1017.36 1017.80 1018.28 1018.80 1019.35 1019.99 1020.94 1020.95 1021.13 1021.54 1020.62 1019.94 1019.48 1019.02 1019.33 1019.38 1020.03 1021.33 1021.62 1021.69 1021.98 1023.07 1023.89 1023.71 1023.49 1023.58 1022.96 1022.05 1020.71 1020.66 1019.00 1018.71 1018.21 1015.41 1013.40 1013.33 1012.41 1012.10 1012.34 1012.71 1013.16
Wind_Speed
27 29 28 26 26 29 28 26 24 25 25 25 22 18 13 2 2 3 6 12 9 6 19 15 13 11 4 5 3 4 6 8 8 5 5 3 2 0 2 1 3 4 4 7 10 12 13
28 27 26 27 29 28 28 27 26 25 25 24 18 14 11 5 7 2 5 10 10 3 16 12 11 7 3 6 4 6 8 5 6 5 3 3 3 3 2 4 5 3 6 10 8 14 11
27 26 26 28 29 28 29 28 27 26 27 24 21 13 8 9 6 6 7 13 12 15 16 14 10 2 8 3 3 3 5 3 3 4 3 3 2 1 0 3 3 4 7 10 7 5 4
26 26 27 29 28 28 28 28 28 29 24 23 23 16 13 10 8 5 9 13 8 8 13 10 8 3 4 0 1 4 3 3 3 3 1 2 3 2 2 3 3 4 2 4 3 0 2
25 26 27 29 27 27 28 29 29 28 25 23 20 16 13 13 10 7 8 14 7 9 11 8 5 1 4 3 4 1 1 2 2 1 2 2 2 2 2 4 3 1 4 4 7 7 2
24 25 27 28 27 28 28 28 28 28 24 22 19 15 15 13 16 13 16 13 13 9 5 0 2 4 5 2 3 1 1 3 2 1 2 1 1 1 1 2 3 6 5 5 9 4 10
23 24 26 26 27 27 27 27 26 25 24 22 22 19 16 15 12 11 6 3 5 7 10 5 1 5 2 6 2 4 1 3 1 4 1 0 1 5 8 6 3 9 10 10 7 14 6
22 22 24 24 25 25 26 25 26 24 25 25 20 16 15 16 14 9 5 6 3 1 6 3 2 3 0 1 3 3 1 1 0 3 1 2 5 8 5 5 5 6 8 8 8 5 3
20 21 23 23 24 24 24 24 24 23 22 24 23 21 17 12 8 7 7 5 6 2 6 5 3 3 3 3 2 2 1 1 2 2 1 4 7 6 2 3 3 3 4 3 5 6 2
20 19 21 22 22 23 22 22 22 21 18 21 20 20 22 16 7 4 5 10 7 3 7 10 7 4 2 2 2 2 1 1 1 2 4 3 4 4 6 3 1 6 3 2 5 5 3
18 17 19 20 20 21 21 21 20 18 16 16 18 15 14 18 3 6 8 10 7 5 8 9 7 3 6 4 2 5 3 3 3 4 4 6 5 4 3 3 2 4 7 4 3 2 3
16 16 17 18 19 20 20 19 19 17 14 11 10 11 8 6 4 5 5 5 5 9 4 8 5 7 5 5 4 5 4 6 1 3 2 5 4 1 3 5 2 3 3 3 2 1 1
14 14 15 16 17 18 19 19 18 16 14 10 9 8 6 2 1 5 3 5 7 10 5 9 5 6 4 5 5 7 6 7 5 7 7 7 4 5 1 4 2 7 3 2 4 1 3
12 12 12 13 15 16 17 18 18 18 17 12 5 6 4 0 3 3 4 7 13 5 2 4 3 5 3 5 4 7 4 7 5 5 3 4 8 4 5 2 2 3 1 3 3 2 1
9 10 9 11 13 15 16 18 18 17 15 11 4 3 3 3 4 1 6 9 5 4 4 5 6 4 5 5 3 4 5 4 3 4 3 3 5 5 0 1 2 4 3 3 4 1 2
8 10 9 8 10 13 15 17 19 20 17 6 3 2 3 6 3 4 7 6 2 2 3 2 4 2 3 5 5 5 5 1 5 2 2 3 5 3 4 2 3 4 1 2 2 2 1
5 9 9 8 8 10 13 15 17 20 20 1 4 4 3 3 4 7 6 3 1 1 1 2 2 4 3 3 3 2 4 3 1 6 0 2 2 6 1 4 1 5 3 3 1 1 2
4 7 8 9 8 10 11 14 17 19 19 6 3 4 2 2 7 3 2 0 1 2 3 2 3 1 1 2 2 1 2 4 1 2 2 1 1 4 1 1 2 1 1 1 2 2 2
5 6 6 8 7 8 11 12 15 18 13 2 3 2 3 6 5 3 2 1 1 2 1 1 2 2 1 1 1 0 2 2 3 3 1 1 1 5 7 4 2 2 1 2 3 2 3
9 7 8 8 8 5 8 11 13 15 11 5 3 3 6 6 2 5 2 2 2 2 2 3 4 2 1 0 1 3 3 2 2 2 4 2 2 7 6 6 1 4 3 2 3 3 3
11 8 9 8 8 5 6 8 11 13 11 4 3 1 2 2 0 5 4 1 2 1 1 1 1 2 2 3 2 3 2 4 1 5 2 4 2 3 6 6 2 4 6 4 3 4 5
12 10 10 9 9 8 4 5 7 11 7 5 3 4 2 1 2 2 3 6 5 2 3 1 2 1 2 3 3 3 1 2 3 4 2 2 2 3 6 4 5 6 9 6 6 3 7
13 11 12 11 10 10 6 3 5 8 5 3 1 1 5 1 1 2 5 7 7 5 5 2 3 2 4 6 6 4 4 1 1 1 1 2 3 3 6 3 3 6 7 7 4 5 5
14 13 13 13 11 10 9 7 3 3 5 3 3 3 3 2 2 5 4 5 8 5 2 3 5 4 2 2 2 2 0 3 3 2 2 2 3 2 5 4 3 5 0 3 6 8 8
15 15 14 15 13 12 12 10 7 4 6 3 3 4 3 2 3 5 4 3 2 1 3 4 5 3 2 2 2 3 3 4 3 2 2 1 3 2 1 2 7 2 4 5 4 7 7
16 15 16 15 15 13 15 14 12 10 9 3 2 2 3 4 6 3 3 4 4 4 3 3 1 3 2 2 2 2 3 2 2 3 2 3 3 4 1 1 2 5 4 4 3 6 7
17 16 17 18 16 15 16 17 15 14 14 5 2 3 4 3 4 6 6 6 6 2 2 2 3 2 2 2 2 4 4 4 2 3 4 1 1 4 3 4 9 7 5 5 1 7 6
17 17 17 18 18 18 17 18 18 16 15 5 2 5 5 3 5 8 8 6 3 3 5 4 3 1 2 2 4 4 4 4 2 5 6 7 7 5 2 1 8 8 5 8 7 3 6
18 17 17 19 20 19 20 20 20 19 18 9 2 2 3 3 5 4 6 6 7 8 7 3 2 5 5 4 0 3 2 1 3 5 1 5 9 6 11 9 4 12 9 9 6 6 7
Wind_Direction
1 360 5 8 0 358 3 359 354 357 352 351 348 344 352 359 94 76 345 348 360 50 132 140 137 135 103 70 56 320 138 124 87 94 123 120 156 123 104 177 169 218 257 240 252 266 256
4 11 11 6 4 2 1 1 355 356 354 353 360 4 3 85 146 105 21 351 6 154 120 134 135 122 79 78 310 327 117 85 107 92 123 151 191 192 199 221 211 195 252 274 270 261 245
6 11 9 6 7 3 3 6 2 356 358 7 8 27 41 88 127 61 33 44 27 122 129 131 130 89 63 125 345 35 86 98 123 130 161 228 167 345 323 311 278 266 308 306 263 228 255
9 13 9 10 8 5 7 8 12 5 15 25 30 51 69 75 80 43 34 56 29 90 122 122 83 61 93 182 309 77 79 92 109 132 47 41 159 211 208 272 312 332 225 308 268 273 322
13 13 11 11 10 9 12 14 18 19 27 29 37 52 54 65 55 48 113 125 140 121 104 82 50 57 49 341 67 140 103 87 100 166 209 134 203 192 167 345 327 192 276 293 324 348 23
14 13 14 12 12 15 17 19 22 28 27 31 41 42 42 39 39 86 110 126 103 67 32 348 69 43 8 351 305 68 44 131 111 157 170 197 49 0 307 199 315 308 307 293 305 285 322
16 13 16 14 12 15 21 23 22 31 31 28 32 34 34 31 51 57 56 38 29 12 34 80 232 102 40 298 260 39 147 120 89 54 270 72 29 247 229 230 229 296 276 285 268 277 281
13 15 15 15 11 14 21 22 22 28 46 29 26 25 26 36 40 27 57 63 31 228 66 35 58 62 241 326 65 0 144 139 168 260 290 4 250 255 248 254 285 260 286 281 281 294 273
11 15 13 16 11 13 19 25 28 26 41 40 25 13 3 359 14 42 76 48 307 303 83 7 24 34 321 24 105 321 110 242 243 282 224 185 255 324 257 332 320 297 253 262 286 313 253
6 17 13 15 12 10 15 23 31 30 34 44 35 24 3 340 36 330 39 336 334 307 79 339 350 5 333 339 42 274 267 227 298 289 338 248 300 340 327 241 103 304 320 283 331 340 306
3 17 15 13 11 11 10 20 29 36 27 42 39 38 53 34 11 34 316 319 318 48 64 309 323 296 321 70 303 337 359 11 287 295 65 268 335 349 317 250 154 282 350 301 277 233 348
355 14 14 12 12 9 9 13 22 31 29 10 37 34 59 54 87 197 278 325 27 42 15 335 328 350 14 2 351 322 16 35 329 348 355 256 281 250 265 306 189 318 254 40 53 18 8
352 8 11 10 12 8 7 7 10 14 18 15 350 19 48 133 232 312 324 46 46 74 292 323 334 356 328 333 2 10 14 12 34 13 7 332 329 313 333 344 48 15 49 40 35 314 192
349 359 8 7 7 6 4 3 3 360 352 336 11 16 345 231 287 287 63 53 58 233 256 282 287 322 23 2 15 6 14 11 24 46 354 25 342 6 349 24 304 323 27 134 164 183 249
341 346 354 4 5 5 2 359 356 352 343 322 9 3 5 295 336 31 70 52 163 200 238 322 328 11 332 2 40 54 22 349 309 33 358 5 280 311 64 309 52 328 33 334 108 204 80
330 330 334 355 3 3 1 357 354 349 346 338 56 39 285 318 48 52 71 116 183 248 314 355 19 41 335 327 29 29 15 353 328 41 138 313 306 262 299 65 20 85 325 52 7 52 340
308 320 331 334 355 360 2 356 357 353 349 66 60 54 265 319 91 56 86 75 281 251 19 67 9 310 342 339 18 2 317 284 35 315 84 350 123 294 349 35 285 350 19 17 332 2 170
268 306 315 315 336 349 2 356 357 0 355 53 85 43 282 39 48 33 81 228 261 279 28 70 159 148 221 344 330 347 294 242 338 187 354 333 148 277 3 101 184 122 78 98 120 270 92
263 270 288 292 307 332 350 0 0 3 23 38 78 261 311 102 84 348 281 263 223 11 20 70 126 104 110 18 11 254 257 226 343 9 72 134 21 353 347 354 6 108 211 137 117 17 238
270 244 270 273 271 311 341 352 359 4 12 90 71 19 337 44 134 129 164 271 296 11 57 353 357 76 13 179 202 276 308 243 328 7 47 99 112 157 195 225 308 308 245 169 130 117 189
267 238 256 265 276 277 317 345 355 0 3 89 36 147 276 261 26 131 127 338 323 335 124 55 119 86 235 230 273 234 254 316 313 358 71 104 215 218 238 229 250 256 273 266 191 196 167
257 243 238 251 261 263 268 327 354 359 17 71 125 132 31 355 54 145 160 195 198 230 178 225 172 207 168 248 237 273 217 217 241 332 78 22 266 98 292 197 215 273 273 252 241 237 269
251 242 232 240 247 245 235 265 338 6 52 103 288 346 109 306 235 157 215 183 204 164 228 216 179 179 218 223 203 217 214 289 256 226 320 50 116 55 271 19 357 331 231 191 237 198 177
250 240 234 232 233 234 222 213 229 49 93 129 177 113 90 266 221 222 203 180 184 208 235 182 176 193 209 102 98 78 107 241 223 238 194 147 97 132 267 360 15 231 103 173 218 259 228
262 240 237 234 230 220 214 208 195 188 152 110 165 130 134 239 203 283 219 240 85 39 238 228 222 209 100 86 48 356 340 358 224 192 192 182 118 15 51 220 288 148 192 183 190 281 214
264 252 236 235 229 223 209 208 193 190 167 111 191 143 127 125 236 134 171 175 201 212 301 247 50 134 89 98 83 133 250 189 322 347 26 99 83 118 64 45 233 221 185 172 142 287 200
264 258 240 232 226 222 213 204 203 188 182 137 202 186 96 169 231 149 187 183 152 137 181 277 190 162 61 137 155 184 247 176 238 214 197 69 23 173 191 250 281 231 170 149 130 236 175
262 259 253 233 227 220 217 209 200 196 179 144 223 187 143 202 264 181 181 158 136 166 167 181 77 250 81 180 150 214 199 224 171 215 194 189 159 202 118 161 283 160 97 177 210 189 179
257 253 251 242 230 223 218 211 202 195 185 156 201 192 147 167 246 214 222 201 189 191 143 196 194 163 195 110 219 104 208 90 182 264 186 257 198 187 190 218 229 194 207 209 176 187 200